Location: East Guldeford
(50.9500°N, 0.7500°E)
Time: 09:54:59
(UTC+00:00)

Cosmos 990 Rocket - Pass Details

Date: 12 May 2021
Orbit: 746 x 769 km, 74.0° (Epoch: 17 June)

Event Time Altitude Azimuth Distance (km) Brightness Sun altitude
Exits shadow 22:19:50 19° 203° (SSW) 1,742 5.5 -17.7°
Maximum altitude 22:23:36 89° 279° (W) 774 4.0 -17.9°
Drops below altitude 10° 22:28:54 10° 24° (NNE) 2,321 7.1 -18.2°
Sets 22:31:17 0° 25° (NNE) 3,253 7.9 -18.4°
